Change the Weather History Date:

Sunday, January 6, 2013

  Actual Average Record
Temperature  
Mean Temperature 27 °F 24 °F  
Max Temperature 36 °F 31 °F 60 °F (2008)
Min Temperature 18 °F 17 °F -16 °F (2014)
Degree Days  
Heating Degree Days 38 41  
Month to date heating degree days 247 246  
Since 1 July heating degree days 2384 2657  
Cooling Degree Days 0 0  
Month to date cooling degree days 0 0  
Year to date cooling degree days 0 0  
Moisture  
Dew Point 22 °F    
Average Humidity 78    
Maximum Humidity 92    
Minimum Humidity 63    
Precipitation  
Precipitation 0.00 in 0.07 in 1.44 in (1918)
Month to date precipitation 0.03 0.38  
Year to date precipitation 0.03 0.38  
Snow  
Snow 0.00 in 0.30 in 14.40 in (1918)
Month to date snowfall 0.4 1.9  
Since 1 July snowfall 1.3 11.8  
Snow Depth 0.00 in    
Sea Level Pressure  
Sea Level Pressure 30.11 in    
Wind  
Wind Speed 12 mph (West)    
Max Wind Speed 22 mph    
Max Gust Speed 29 mph    
Visibility 8 miles    
Events      
T = Trace of Precipitation, MM = Missing Value Source: NWS Daily Summary

Daily Weather History Graph

Daily Weather History Graph

Search for Another Location

Airport or City:

Trip Planner

Search our weather history database for the weather conditions in past years. The results will help you decide how hot, cold, wet, or windy it might be!

Date:

Astronomy

Jan. 06, 2013 Rise Set
Actual Time 7:19 AM CST 4:36 PM CST
Civil Twilight 6:48 AM CST 5:07 PM CST
Nautical Twilight 6:13 AM CST 5:42 PM CST
Astronomical Twilight 5:39 AM CST 6:16 PM CST
Moon 1:31 AM CST (1/6) 12:04 PM CST (1/6)
Length of Visible Light 10h 19m
Length of Day
9h 16m
Waning Crescent, 33% of the Moon is Illuminated
Jan 6
Waning Crescent
Jan 11
New
Jan 18
First Quarter
Jan 26
Full
Feb 3
Last Quarter

Hourly Weather History & Observations

Time (CST) Temp. Windchill Dew Point Humidity Pressure Visibility Wind Dir Wind Speed Gust Speed Precip Events Conditions
12:51 AM 36.0 °F 26.0 °F 33.1 °F 89% 29.92 in 8.0 mi SW 17.3 mph - N/A   Overcast
1:51 AM 36.0 °F 27.1 °F 32.0 °F 86% 29.92 in 9.0 mi WSW 13.8 mph 23.0 mph N/A   Overcast
2:51 AM 36.0 °F 28.0 °F 32.0 °F 86% 29.92 in 9.0 mi WSW 11.5 mph - N/A   Overcast
3:51 AM 35.1 °F 25.2 °F 30.9 °F 85% 29.91 in 9.0 mi WSW 16.1 mph 24.2 mph N/A   Overcast
4:27 AM 33.8 °F 22.8 °F 28.4 °F 81% 29.89 in 8.0 mi West 18.4 mph - N/A   Overcast
4:51 AM 30.9 °F 19.4 °F 26.1 °F 82% 29.92 in 9.0 mi West 17.3 mph 23.0 mph N/A   Overcast
5:51 AM 28.9 °F 17.3 °F 23.0 °F 78% 29.96 in 8.0 mi West 16.1 mph 23.0 mph N/A   Overcast
6:51 AM 27.0 °F 14.7 °F 21.9 °F 81% 29.98 in 9.0 mi West 16.1 mph - N/A   Overcast
7:51 AM 26.1 °F 15.6 °F 19.0 °F 75% 30.01 in 7.0 mi West 11.5 mph - N/A   Overcast
8:44 AM 24.8 °F 13.4 °F 17.6 °F 74% 30.01 in 6.0 mi WNW 12.7 mph - N/A   Haze
8:51 AM 25.0 °F 13.1 °F 18.0 °F 75% 30.04 in 6.0 mi WNW 13.8 mph 19.6 mph N/A   Haze
9:51 AM 25.0 °F 12.2 °F 18.0 °F 75% 30.08 in 6.0 mi WNW 16.1 mph - N/A   Haze
10:51 AM 26.6 °F 14.7 °F 19.4 °F 74% 30.07 in 6.0 mi WNW 15.0 mph 19.6 mph N/A   Haze
11:51 AM 28.9 °F 17.3 °F 21.0 °F 72% 30.10 in 7.0 mi NW 16.1 mph - N/A   Overcast
12:51 PM 32.0 °F 20.5 °F 21.9 °F 66% 30.10 in 8.0 mi West 18.4 mph 24.2 mph N/A   Partly Cloudy
1:31 PM 30.2 °F 18.9 °F 21.2 °F 69% 30.10 in 8.0 mi WNW 16.1 mph 24.2 mph N/A   Mostly Cloudy
1:51 PM 32.0 °F 22.1 °F 23.0 °F 69% 30.14 in 9.0 mi NW 13.8 mph 24.2 mph N/A   Mostly Cloudy
2:16 PM 33.8 °F 25.3 °F 23.0 °F 65% 30.12 in 10.0 mi NW 11.5 mph - N/A   Scattered Clouds
2:51 PM 32.0 °F 21.6 °F 23.0 °F 69% 30.17 in 10.0 mi WNW 15.0 mph - N/A   Partly Cloudy
3:51 PM 30.9 °F 21.2 °F 21.9 °F 69% 30.20 in 10.0 mi NW 12.7 mph - N/A   Partly Cloudy
4:51 PM 28.9 °F 20.4 °F 21.9 °F 75% 30.23 in 10.0 mi WNW 9.2 mph - N/A   Partly Cloudy
5:51 PM 27.0 °F 19.5 °F 21.0 °F 78% 30.27 in 10.0 mi WNW 6.9 mph - N/A   Partly Cloudy
6:51 PM 26.1 °F 18.4 °F 21.0 °F 81% 30.30 in 9.0 mi West 6.9 mph - N/A   Clear
7:51 PM 24.1 °F 16.0 °F 19.9 °F 84% 30.32 in 8.0 mi West 6.9 mph - N/A   Clear
8:51 PM 23.0 °F 17.0 °F 19.0 °F 85% 30.32 in 8.0 mi West 4.6 mph - N/A   Clear
9:51 PM 21.9 °F 15.7 °F 18.0 °F 85% 30.33 in 8.0 mi WSW 4.6 mph - N/A   Clear
10:51 PM 21.0 °F - 18.0 °F 88% 30.34 in 8.0 mi Calm Calm - N/A   Clear
11:51 PM 19.9 °F 14.9 °F 18.0 °F 92% 30.34 in 8.0 mi WSW 3.5 mph - N/A   Clear